Showing default

OPS 9344 (IDSCS 22), 3287

Orbit data source: Space-Track

OPS 9344 (IDSCS 22), 3287 is a payload satellite owned by SAMSO (US) in GEO that was launched on Thu, 13 Jun 1968 UTC via a TITAN IIIC launch vehicle from the Air Force Eastern Test Range (AFETR). Payloads include a variety of satellites, spacecraft, and rockets equipped with specific instruments for various scientific and technological missions. These include communications satellites like Starlink; space stations such as the ISS; scientific satellites like the Hubble; Earth observation satellites from companies like Planet Labs, Umbra, and HawkEye 360; GPS; miniature CubeSats for education and research; and military/defense satellites.

Not visible in the next 10 days
OPS 9344 (IDSCS 22) details
Identifier
3287, 1968-050D
Orbit
GEO
Last TLE update1 day ago
Origin
Flag of USSAMSO (US)
ManufacturerPhilco-Ford
MissionNon-operational Defense Communications
Bus & MotorIDCSP, Unknown motor
Mass45 kg wet, 45 kg dry
Launch date (UTC)
1968-06-13 (57 years ago)
Launch vehicle
TITAN IIIC
Launch site
Air Force Eastern Test Range (AFETR)
Object type
Payload
Rocket body
Debris
Shape & HBRPoly, 0.9 m
Radar Cross Section0.926 m², Medium (>0.1 m² and < 1m²)

Expand to show TLE details & history

TLE from 1 day ago
0 OPS 9344 (IDSCS 22)
1 03287U 68050D   24355.25327427 -.00000072  00000-0  00000-0 0  9990
2 03287   6.0636  57.0412 0025685 133.7471 306.1898  1.07639944221412
Epoch: 2024-12-20T06:04Z
Definitive object data (Epoch: 2024-12-20T06:04:42.896Z)
Latitude5.98695°
Longitude-43.80846°
Altitude33,778.198 km
Speed3.153 km/s
True Right ascension09h 06m 46s
True Declination5° 58' 50"
Sunlit
Object was in daylight at TLE epoch
Visualization TLE readout
Latitude-3.75019°
Longitude94.37857°
Altitude33,829.17 km
Speed3.149 km/s
Apparent Right ascension18h 46m 52s
Apparent Declination-9° 17' 54"
Sunlit
Object is in daylight
Visualization observer readout
Local Sidereal Time11:56:15
Azimuth89.12° E
Elevation-15.634°
Doppler factor1
Orbital elements
Apogee altitude33,944.18 km
Perigee altitude33,737.575 km
Semi-major axis40,219.015 km
Eccentricity0.0025685
Inclination6.0636°
RAAN57.0412°
Arg. of periapsis133.7471°
True anomaly305.95181°
Mean anomaly306.1898°
Eccentric anomaly306.07085°
Mean motion0.26909 °/min
BSTARUnknown
Orbital period1337.85 mins
Loading historical data...
3287 neighbors
Authenticating...
Loading maneuver chart data...
Loading historical data...
Loading historical data...
Loading historical data...
Loading historical data...
Loading historical data...
Loading historical data...
Loading historical data...

OPS 9344 (IDSCS 22) Visibility forecast

Observer location: undefined°, undefined

OPS 9344 (IDSCS 22) is not visible in the next 10 days
Span
Click to sort rows by Start time (UTC) header in descending order
Start Az.
Max El. time (UTC)
Max El. Az.
Max El.
End time (UTC)
End Az.
|